Tracking 22223 objects as of 26-Jan-2021
HD Live streaming from Space Station
objects crossing your sky now

GALAXY 1R

Track GALAXY 1R now!
GALAXY 1R is classified as:


NORAD ID: 23016
Int'l Code: 1994-013A
Perigee: 36,068.3 km
Apogee: 36,111.0 km
Inclination: 10.5 °
Period: 1,451.2 minutes
Semi major axis: 42460 km
RCS: 8.3555 m2 (large)
Launch date: February 19, 1994
Source: United States (US)
Launch site: AIR FORCE EASTERN TEST RANGE (AFETR)

24 C-band; North America, Caribbean.
aabbcc
Your satellite tracking list
Your tracking list is empty




NASA's NSSDC Master Catalog

Two Line Element Set (TLE):
1 23016U 94013A   21025.75664068 -.00000118  00000-0  00000-0 0  9992
2 23016  10.5410  34.9844 0005028 314.1731 232.2708  0.99225325 26652
Source of the keplerian elements: AFSPC